Theta_e
314 316 318 318 316 316 316 316 316 316 316 317 317 317 317 317 317 317 317 318 318 318 317 317 317 316 315 315 314 314 314 314 314 314 314 315 316 318 319 317 314 313 312 310 309 308 307 306 307 306 306 307 307 307 307 308 309 310 311 313 313 313 313 315 317 319 320 320 321 321 321 321 321 321 321 321 321 320 320 320 320 319 319 318 318 318
315 318 319 317 316 316 317 317 318 318 318 317 318 318 318 317 317 317 317 318 317 317 316 316 316 315 315 315 314 314 314 314 315 315 315 316 318 318 318 315 312 311 310 308 308 306 306 305 305 305 305 305 306 306 306 306 307 308 309 310 312 312 312 313 314 316 318 318 319 319 319 319 319 320 320 320 319 319 319 318 318 318 317 317 316 316
318 319 318 316 316 317 317 317 318 318 319 318 318 318 318 318 317 317 318 317 316 315 315 316 315 315 315 314 315 315 315 316 317 317 317 317 315 314 313 312 310 309 308 307 306 305 305 304 304 304 304 304 304 305 305 305 306 307 308 309 309 310 310 311 311 313 314 315 316 316 316 317 317 317 317 318 317 317 317 317 317 316 316 315 315 315
321 319 317 316 317 317 317 317 318 318 319 319 318 318 318 319 319 319 318 317 316 315 315 316 315 315 315 315 316 316 316 318 318 317 316 315 313 312 311 309 308 307 307 306 305 304 304 303 303 302 303 303 303 303 303 304 304 305 306 307 308 308 308 309 309 309 310 311 313 314 314 314 314 314 314 315 315 315 315 315 315 315 314 314 313 313
320 319 318 317 318 318 318 318 319 319 318 320 321 320 319 318 319 318 317 317 316 316 316 317 318 318 318 318 317 318 319 318 316 314 314 313 312 311 310 308 307 306 305 305 304 303 303 302 302 301 302 302 302 302 302 303 303 303 304 305 306 306 306 307 308 308 308 309 310 310 310 310 310 310 310 310 310 310 311 311 312 312 312 312 312 312
318 317 318 318 317 319 320 318 319 320 319 319 322 322 319 318 319 319 319 319 318 318 318 318 322 323 321 320 319 318 319 316 313 312 311 311 310 309 308 307 306 305 304 304 303 303 302 302 301 301 301 301 301 301 301 301 301 301 302 303 304 304 305 306 306 306 307 307 308 308 308 308 308 308 308 308 308 308 308 309 309 309 309 309 310 310
317 316 319 320 319 320 322 320 319 320 319 319 321 322 320 319 321 321 321 321 320 319 317 317 321 321 319 318 318 318 317 314 311 311 310 309 308 307 306 305 305 304 304 303 302 302 301 301 301 300 300 300 300 300 300 300 300 300 300 301 302 302 303 304 305 305 305 306 306 307 307 307 307 307 307 307 307 307 307 307 307 307 307 307 307 308
317 317 319 320 318 320 322 320 319 320 319 321 320 319 319 319 319 319 319 319 319 318 317 317 318 320 320 318 318 318 316 313 311 311 310 308 307 306 305 304 304 303 303 302 302 301 300 300 300 300 299 299 300 300 300 299 299 299 299 300 300 300 301 302 303 304 304 305 305 305 306 306 306 306 306 306 306 306 306 306 306 306 306 305 305 305
316 319 321 320 319 320 319 318 321 320 320 322 319 316 317 316 316 316 317 319 318 318 319 320 319 322 323 320 318 319 315 313 312 310 309 308 306 305 304 303 303 302 301 301 301 300 299 299 299 299 298 299 299 299 299 299 299 298 298 298 299 299 300 300 301 302 303 304 304 304 304 304 305 305 305 305 305 305 305 304 304 304 304 304 303 303
316 316 317 319 320 320 316 318 323 322 319 319 317 317 316 317 318 318 318 317 317 318 320 321 320 322 325 323 320 319 316 313 312 310 308 307 305 304 303 302 301 301 300 300 299 298 298 298 298 298 297 297 298 298 298 298 298 298 298 298 298 298 298 299 300 300 301 301 302 302 303 303 303 303 303 304 304 304 304 304 304 303 303 303 302 302
314 311 312 316 318 317 316 318 320 321 319 316 316 317 317 319 320 318 319 317 318 323 322 320 320 320 326 328 319 318 316 312 311 309 308 306 305 304 302 301 300 299 299 298 297 296 296 296 296 296 296 296 296 297 297 297 297 298 297 297 297 297 297 298 298 298 299 299 300 300 301 301 301 302 302 302 302 303 303 303 303 303 303 303 302 302
315 313 314 317 316 314 317 318 316 316 315 315 315 315 318 321 320 318 319 317 320 326 322 320 321 321 326 327 317 315 315 312 311 310 308 306 304 303 302 301 299 298 297 297 296 296 295 295 295 295 295 295 295 295 296 296 296 296 296 296 297 296 297 297 297 297 297 297 298 298 299 299 300 300 300 301 301 301 301 302 302 302 302 302 302 301
320 318 316 317 315 313 316 317 316 315 314 314 314 314 318 324 323 322 323 322 324 324 319 319 324 325 325 323 318 316 314 312 312 309 307 305 303 302 301 300 299 298 297 296 295 295 294 294 294 294 294 294 294 294 294 295 295 295 295 295 295 295 296 296 296 296 296 296 296 297 297 298 298 299 299 299 299 299 300 300 301 301 301 301 301 301
323 322 318 318 317 314 315 315 318 320 315 313 316 318 321 324 325 326 326 326 326 324 320 321 324 326 325 322 319 315 310 309 309 307 305 304 302 302 301 300 299 298 297 296 295 294 294 293 293 293 293 293 293 293 293 294 294 294 294 294 293 294 294 295 295 295 295 295 295 295 295 296 296 297 298 298 298 298 298 299 299 300 300 300 300 300
323 323 321 321 320 316 315 315 320 323 317 314 317 322 324 323 323 324 325 327 328 328 326 323 324 327 325 319 314 309 307 306 305 304 304 302 301 301 300 299 299 298 297 296 295 294 293 293 293 292 293 293 293 292 292 293 293 293 293 293 292 292 293 293 293 293 293 293 293 294 294 295 295 295 295 296 296 296 297 298 298 298 299 299 299 299
321 323 321 320 317 314 315 316 318 319 318 317 318 322 324 324 323 323 324 326 326 327 325 324 326 326 320 314 309 307 306 305 304 303 302 301 301 300 300 299 298 297 297 296 296 295 293 292 292 292 292 292 292 292 292 292 292 292 292 292 292 291 291 292 292 292 292 291 291 292 292 293 293 293 294 294 294 295 295 296 296 297 297 298 298 298
320 321 321 319 315 314 316 317 317 318 319 318 319 323 322 322 323 323 325 325 325 325 323 322 325 322 317 314 309 307 306 304 304 303 301 301 300 299 299 298 298 297 296 295 295 295 293 292 292 292 291 291 291 291 291 291 291 291 292 291 291 291 290 291 291 291 290 290 290 290 290 291 291 292 292 292 292 293 293 294 294 294 295 295 296 296
322 321 321 320 319 318 316 316 317 318 318 318 320 321 319 320 323 321 322 323 325 324 321 320 322 319 318 317 310 307 307 305 303 302 301 300 299 298 298 297 297 296 296 295 295 294 292 291 291 291 291 290 290 290 291 290 290 290 290 290 289 289 289 289 290 290 289 288 288 288 289 289 289 290 289 289 290 290 291 291 292 292 293 293 294 294
323 322 322 323 324 319 313 315 318 317 318 318 318 318 318 321 323 321 321 322 323 322 320 320 320 318 318 318 312 309 307 304 303 301 300 299 298 298 297 296 296 296 296 295 295 294 292 291 290 290 290 290 290 290 290 290 290 289 289 289 288 288 288 288 288 288 288 287 287 287 287 288 288 288 288 288 288 288 288 289 289 289 290 291 292 292
321 322 323 324 325 320 314 317 321 319 318 315 314 316 317 319 321 320 320 322 322 320 320 320 319 318 317 314 312 310 306 303 302 301 300 299 298 298 297 296 296 295 295 295 295 294 292 291 290 290 290 290 290 291 291 291 290 290 289 289 289 288 288 288 287 287 287 287 287 287 286 286 286 286 287 287 286 286 287 287 287 287 288 288 289 290
319 321 321 322 322 320 318 320 321 319 319 317 315 316 316 318 321 321 320 320 320 319 320 319 319 319 316 309 307 307 305 304 302 300 300 299 298 297 297 296 296 295 295 295 295 294 293 292 291 290 291 291 291 291 291 291 291 291 290 289 289 289 289 288 288 288 288 288 288 287 287 286 286 286 286 286 286 286 286 286 286 286 286 286 287 287
317 319 319 319 319 319 319 319 320 320 320 319 318 318 318 319 321 321 319 319 319 319 319 318 319 320 313 306 305 305 304 304 302 301 300 298 297 296 295 295 295 295 295 295 295 294 292 292 292 292 292 291 291 291 291 291 291 290 290 289 289 289 289 288 288 288 288 288 288 288 288 287 287 286 286 286 286 286 286 286 286 286 286 286 286 286
314 316 317 318 317 317 316 316 320 320 319 319 319 320 321 319 318 319 319 320 320 319 319 319 320 319 310 304 304 303 302 303 301 301 301 298 297 296 295 295 295 295 295 295 294 293 292 293 293 292 292 291 291 291 290 290 290 289 289 289 289 289 288 288 288 288 288 288 288 288 288 288 287 287 287 286 286 286 286 286 285 286 285 285 286 286
314 315 317 317 316 316 315 316 318 319 318 319 318 317 319 318 317 317 317 317 317 317 318 318 319 319 310 304 304 304 303 303 301 301 300 298 297 297 296 295 295 294 295 295 294 293 292 293 293 292 292 291 291 290 290 290 290 289 289 289 289 289 288 288 288 288 288 288 287 288 288 288 287 287 287 287 287 286 286 286 286 285 285 285 285 285
315 315 316 316 316 316 316 316 318 318 317 316 314 313 314 315 316 315 314 315 316 316 316 316 317 318 311 304 304 304 303 303 302 301 301 299 298 296 295 295 295 295 295 294 294 293 292 292 292 291 291 291 291 290 290 290 290 289 289 289 289 289 288 288 288 288 287 287 287 287 287 287 287 287 287 287 287 287 286 286 286 286 285 285 285 285
314 314 314 314 315 315 315 315 317 317 315 314 313 313 313 313 314 315 314 315 315 314 314 312 313 315 310 305 305 305 304 304 303 301 300 300 298 296 296 296 295 295 295 294 294 294 293 292 292 291 291 291 290 290 290 290 290 289 289 289 289 289 288 288 288 288 288 287 287 287 287 287 287 287 287 286 287 286 286 286 286 286 285 285 285 285
313 313 314 314 313 313 313 313 313 314 313 312 313 313 313 312 313 313 313 313 313 312 311 310 310 311 310 308 307 307 306 307 306 302 299 299 297 296 296 297 296 295 294 293 293 294 294 292 291 291 291 291 290 290 290 290 290 289 289 289 289 289 288 288 288 288 288 288 287 287 287 287 287 287 287 286 286 286 286 286 286 286 285 285 285 285
311 312 313 313 312 312 312 312 311 311 311 310 311 311 311 312 311 311 311 311 311 311 310 308 308 308 308 307 306 306 306 307 308 305 300 298 297 297 296 296 295 295 294 294 294 293 293 293 292 291 291 291 291 290 290 290 290 289 289 289 289 289 289 289 288 288 288 288 287 287 287 287 287 287 286 286 286 286 286 286 286 286 286 285 285 285
309 309 309 309 310 310 309 309 309 309 308 308 308 308 308 309 309 309 309 309 309 310 309 307 307 307 306 306 306 305 304 304 304 302 300 298 297 296 296 295 295 295 295 295 295 294 294 294 292 291 291 291 291 291 290 290 290 290 289 289 289 289 289 289 288 288 288 288 287 287 287 287 287 286 286 286 286 286 286 286 286 286 286 285 285 285
308 307 307 307 307 307 307 307 307 307 307 306 306 306 306 306 307 307 306 307 308 307 307 306 306 305 304 304 303 302 301 300 299 298 297 297 296 296 295 295 295 295 295 296 296 295 295 293 291 291 291 291 291 291 291 291 290 290 290 290 289 289 289 289 288 288 288 288 287 287 287 286 286 286 286 286 285 285 285 285 285 285 285 285 285 285
307 307 307 306 306 306 305 306 306 307 307 306 305 306 305 305 305 305 305 305 305 305 304 304 304 304 302 301 300 298 297 297 296 295 295 296 295 295 294 293 294 293 293 294 294 294 295 293 290 290 291 291 291 291 291 291 290 290 290 290 290 289 289 289 288 288 288 287 287 287 287 286 286 286 285 285 285 285 285 285 285 285 285 285 285 284
306 306 306 306 305 304 303 303 304 304 305 305 304 303 303 303 303 303 303 303 303 303 303 302 303 303 301 298 297 297 295 294 294 294 294 294 294 293 292 292 293 293 293 293 292 293 294 292 290 289 290 290 290 290 290 290 290 290 290 289 289 288 288 288 287 286 286 286 286 286 286 286 286 285 285 285 285 285 285 285 285 284 284 284 284 284
305 305 304 304 304 302 302 302 301 302 302 302 301 301 301 302 302 302 302 302 302 302 302 302 302 302 301 298 297 295 293 293 293 293 293 293 292 292 292 292 292 292 292 292 292 292 292 291 289 289 290 289 289 288 288 288 288 288 288 288 287 287 287 286 285 285 284 285 285 285 285 285 285 285 285 285 284 284 284 284 284 284 284 284 284 284
303 303 303 303 302 301 301 301 300 301 301 301 301 301 301 301 301 301 301 301 301 300 301 302 302 301 298 297 295 294 292 292 292 292 292 292 292 292 292 292 292 292 291 291 292 291 289 289 289 289 289 288 287 287 287 287 287 287 286 286 285 285 284 283 283 283 283 283 283 283 283 283 284 284 284 284 284 283 283 284 284 284 283 283 283 283
302 302 301 302 302 301 300 300 300 299 300 300 301 301 300 300 300 300 300 299 299 298 298 300 301 298 296 294 294 292 292 292 292 292 292 293 293 293 293 293 292 291 291 291 291 289 288 289 288 288 287 287 286 285 285 285 284 284 284 283 283 282 282 281 281 281 281 281 281 281 281 282 282 282 282 281 281 281 282 282 282 282 282 282 282 282
300 300 300 300 300 300 300 300 299 298 297 298 299 299 298 298 298 298 298 297 297 298 297 298 299 296 294 293 292 291 291 291 292 293 294 293 293 293 293 292 291 291 290 290 289 288 288 288 287 286 285 285 284 283 283 282 282 281 280 280 280 279 279 278 278 278 278 279 279 279 279 279 278 278 278 278 278 278 279 279 279 279 279 279 279 280
299 299 299 299 299 299 298 298 298 297 297 297 297 297 297 298 297 297 298 298 297 296 297 298 298 294 292 292 291 291 291 291 292 293 293 292 293 293 292 291 291 290 289 289 288 288 287 286 285 284 284 283 282 281 280 279 279 278 277 277 277 276 276 276 276 276 276 276 276 277 276 276 275 275 275 275 276 276 276 276 276 276 276 277 277 277
298 298 299 298 298 298 298 298 297 296 297 297 296 296 296 296 296 297 298 299 298 297 297 298 296 292 291 291 290 291 292 291 291 292 291 291 292 291 291 290 289 289 288 288 287 287 285 284 283 283 282 281 280 279 278 277 276 275 275 275 274 274 274 274 274 274 274 274 274 274 273 273 272 272 273 273 273 273 273 273 273 273 273 273 274 274
295 296 297 298 298 298 298 297 297 296 297 296 296 295 295 295 296 297 297 297 296 295 295 295 293 291 291 291 290 291 291 291 292 292 291 291 291 290 290 290 288 287 287 286 285 284 284 283 282 281 280 279 278 276 275 274 274 273 273 272 272 272 272 272 272 272 272 271 271 270 270 270 269 269 270 270 270 269 269 269 269 270 270 270 271 272
294 295 297 297 297 297 297 297 296 295 295 295 294 294 295 295 296 297 295 294 294 294 293 293 292 292 291 291 291 291 291 292 292 292 291 290 289 289 289 288 287 286 285 285 284 283 282 281 280 279 278 276 275 274 273 272 272 271 271 270 270 270 271 271 270 270 269 268 268 268 267 267 266 266 266 266 266 266 266 266 267 267 267 268 268 269
293 294 296 296 296 296 297 297 296 295 295 296 295 295 295 295 295 295 294 294 295 295 293 292 292 292 291 291 291 291 292 293 292 292 291 290 290 289 287 286 286 285 284 283 282 281 280 279 278 276 275 274 273 272 271 270 270 269 269 269 269 269 269 268 268 267 266 266 266 265 265 265 264 264 264 264 264 264 264 264 265 265 265 266 266 267
294 294 295 295 294 294 295 295 295 295 295 296 295 295 295 295 295 294 293 294 295 295 294 292 292 291 291 291 291 291 292 292 291 291 290 290 290 289 286 285 285 284 283 282 281 279 278 277 276 274 273 272 271 270 269 269 268 268 267 267 267 267 267 266 266 265 265 264 264 264 263 263 263 263 263 263 263 263 263 263 263 263 264 264 264 265
295 295 295 295 294 295 294 294 294 294 294 294 295 294 295 296 295 295 294 293 293 294 294 293 293 293 292 292 292 292 292 291 290 290 290 290 289 287 285 284 283 282 281 280 278 277 276 275 273 272 271 270 269 268 268 267 267 266 266 266 266 266 265 265 264 264 264 263 263 263 262 262 262 262 262 262 262 262 262 262 262 262 263 263 263 264
294 294 294 294 295 295 294 294 295 295 294 294 295 295 295 296 295 295 295 294 293 293 294 293 293 293 293 292 292 291 291 290 289 289 289 289 288 286 284 283 282 280 279 278 276 275 274 273 271 270 269 269 268 267 267 266 266 265 265 265 265 264 264 264 263 263 263 262 262 262 262 262 262 262 262 262 261 262 262 262 262 262 262 263 263 263
294 294 293 293 293 294 294 294 295 294 293 294 296 295 295 295 294 294 294 295 294 294 293 293 293 293 292 291 291 290 290 289 289 288 288 287 286 284 282 281 280 279 277 276 274 273 272 271 270 269 268 267 267 266 266 265 265 264 264 264 264 264 263 263 263 262 262 262 262 262 261 261 261 261 261 261 261 261 261 261 262 262 262 263 263 263
293 293 292 292 292 292 293 292 292 292 292 293 294 294 294 294 294 293 293 293 294 293 293 292 292 292 291 290 290 289 289 288 288 287 286 285 284 282 281 280 279 277 275 274 273 271 270 269 268 267 267 266 265 265 265 264 264 264 264 264 263 263 263 262 262 262 262 261 261 261 261 261 261 261 261 261 261 261 261 261 262 262 262 262 263 263
292 292 292 292 292 292 291 292 292 293 293 292 292 293 294 293 293 293 292 292 293 293 293 292 292 290 289 289 289 288 288 287 287 286 284 283 282 280 278 277 276 274 273 272 271 270 269 268 267 266 265 265 264 264 264 264 263 263 263 263 263 263 262 262 262 261 261 261 261 261 261 260 260 260 260 260 260 261 261 261 261 262 262 262 262 262
292 292 292 292 291 291 291 291 292 292 292 292 291 291 292 292 292 292 292 292 292 292 291 290 289 288 288 288 287 287 286 285 284 284 282 281 280 278 276 275 274 272 271 270 269 268 267 266 265 265 264 264 263 263 263 263 263 263 263 263 262 262 262 261 261 261 261 261 261 260 260 260 260 260 260 260 260 260 260 261 261 261 261 261 262 262
292 292 292 292 292 292 291 291 291 292 291 291 291 291 291 291 291 291 291 291 291 290 288 286 285 285 286 285 285 284 284 283 282 281 280 279 277 276 274 272 271 270 270 269 268 267 266 265 264 264 263 263 263 263 263 263 263 262 262 262 262 262 261 261 261 261 261 261 260 260 260 260 260 260 260 260 260 260 260 260 260 261 261 262 262 263
292 292 292 292 292 292 291 291 291 291 291 290 291 291 291 291 291 291 291 290 289 288 287 285 283 282 281 281 281 281 282 281 279 278 277 276 275 273 271 270 269 269 268 267 266 266 265 264 264 263 263 262 262 262 262 262 262 262 262 262 262 261 261 261 261 260 260 260 260 260 260 260 260 259 259 259 259 259 259 260 260 261 262 263 263 264
292 292 291 292 292 291 291 291 292 291 291 291 291 292 292 291 291 291 291 290 288 287 286 285 284 282 280 278 278 278 279 278 276 275 275 273 272 271 269 268 268 267 266 266 265 265 264 264 263 262 262 262 262 262 262 262 262 262 262 262 261 261 261 261 260 260 260 260 260 260 260 259 259 259 259 259 259 259 259 260 260 261 262 263 263 264
Wind_Speed
4 3 3 4 5 7 9 10 11 11 10 11 9 9 9 8 7 8 9 9 8 8 7 6 8 8 7 9 13 15 13 13 14 10 11 10 5 5 7 9 12 12 11 17 25 27 27 26 25 25 26 27 28 28 27 25 22 19 14 10 7 4 3 5 6 7 10 11 10 10 10 9 10 11 11 12 14 14 15 15 16 18 19 20 23 27
2 3 4 7 9 11 12 10 11 11 9 9 8 8 8 7 8 9 11 11 6 4 4 5 7 8 8 12 16 16 12 11 12 10 10 4 6 7 8 12 13 10 10 15 20 22 25 26 25 25 26 28 28 28 29 28 25 23 19 16 12 8 4 4 5 6 7 8 8 8 8 9 9 9 11 12 13 14 14 15 16 17 19 19 21 23
2 5 9 11 11 11 11 10 10 11 9 7 7 7 6 5 7 8 9 9 2 1 3 6 7 7 10 15 17 14 10 10 10 4 3 8 11 10 11 12 11 11 12 13 14 17 22 24 25 26 26 27 27 28 30 29 27 26 23 20 17 13 10 7 4 5 4 4 5 5 5 5 6 5 7 9 10 11 13 15 16 17 18 19 20 22
4 5 9 11 11 10 11 9 9 9 6 5 5 5 6 5 6 6 4 5 4 3 6 9 8 7 11 15 13 12 9 6 2 9 13 12 13 12 12 11 11 12 12 12 11 13 17 22 24 26 26 26 27 29 30 29 28 27 25 22 20 16 14 12 7 5 5 4 3 4 3 4 5 4 4 6 7 9 11 13 15 16 17 17 18 20
7 6 4 5 8 9 8 8 7 7 5 5 6 6 7 7 8 6 4 6 6 6 6 6 5 5 8 9 6 6 4 3 9 15 14 11 12 11 12 12 12 12 10 10 10 10 13 17 21 24 25 26 27 29 29 29 28 27 25 23 21 18 16 14 10 7 7 5 4 2 1 1 1 1 3 5 7 9 10 12 14 15 16 16 17 19
8 7 4 4 5 6 6 6 6 5 4 5 5 5 5 5 5 5 7 7 5 4 3 3 2 3 5 6 6 7 3 7 11 13 12 11 11 11 11 11 10 10 10 9 9 8 10 14 18 22 25 26 27 28 27 28 29 28 26 24 23 21 18 16 13 10 10 9 7 7 7 7 5 4 4 5 5 7 8 9 11 13 14 15 16 18
3 1 2 1 3 4 4 6 6 5 4 5 3 3 4 4 5 6 6 5 1 3 3 2 1 4 5 5 9 12 1 9 10 11 11 9 10 10 9 8 8 8 8 7 8 8 10 13 16 19 23 25 25 26 27 29 30 29 27 25 24 24 21 19 16 13 12 12 11 10 9 9 9 9 9 9 8 5 4 5 6 8 11 12 14 16
3 3 3 3 1 2 4 6 5 4 4 4 2 4 5 5 5 4 3 2 4 4 5 4 4 6 5 5 13 12 5 11 8 9 9 8 9 9 8 8 8 8 7 7 8 8 11 14 16 18 21 23 24 25 27 30 30 29 28 26 24 25 24 21 19 16 15 15 14 13 12 11 11 11 11 10 10 8 5 4 4 6 8 10 11 13
1 4 4 4 3 4 5 4 3 2 3 2 0 2 3 2 2 3 3 4 4 3 4 5 6 4 4 5 11 7 8 9 6 8 7 8 9 8 8 8 7 7 7 7 8 8 11 15 18 18 20 23 24 25 27 28 29 29 28 27 26 25 25 23 21 19 17 16 15 14 14 13 13 12 11 10 10 10 8 5 5 7 8 10 11 11
0 1 2 4 4 5 5 3 1 1 2 2 2 1 2 3 4 3 4 3 3 3 5 6 6 3 4 6 5 2 8 6 5 6 6 7 7 7 7 7 6 6 6 7 8 9 12 15 17 18 21 24 25 25 26 28 29 29 29 29 28 26 25 23 22 21 19 18 17 17 16 15 14 13 12 11 10 11 10 9 7 7 8 9 11 11
1 2 1 2 5 4 3 2 2 2 1 1 1 2 4 5 4 3 3 1 2 3 5 7 9 7 3 5 1 4 6 9 7 6 7 7 6 6 6 6 6 5 5 6 7 9 14 16 17 19 22 24 25 25 26 27 28 28 28 28 29 28 26 24 23 22 21 20 20 19 17 16 15 14 13 12 12 12 12 12 11 9 9 9 10 11
2 1 1 2 4 3 3 2 1 2 2 2 0 2 4 4 1 1 0 1 1 3 4 5 3 8 4 3 2 5 6 10 10 9 10 9 7 6 6 5 5 5 5 6 5 7 11 14 17 20 22 23 24 25 26 26 26 26 26 26 27 27 26 25 24 24 23 22 21 20 19 17 16 14 14 13 13 13 13 13 13 12 11 10 10 10
3 5 5 2 1 2 3 1 1 1 2 3 2 1 1 2 1 0 0 2 3 4 3 3 6 3 5 5 4 3 6 5 7 9 10 10 8 7 6 5 5 4 5 5 5 6 7 9 14 18 20 21 22 23 24 25 25 25 24 24 25 24 23 23 24 25 25 25 23 22 20 18 16 15 15 15 14 13 13 13 13 13 12 12 11 11
1 2 4 2 2 2 5 3 2 1 2 5 4 4 3 1 2 2 2 3 3 3 4 1 6 1 3 5 5 3 7 6 9 9 8 9 8 7 6 5 5 5 5 5 5 6 6 9 13 15 17 19 20 21 22 23 23 23 23 23 22 22 22 22 22 23 25 25 25 24 23 21 19 17 15 15 14 13 13 12 12 12 13 13 13 13
2 3 3 5 1 5 8 6 4 2 4 6 4 4 4 2 3 4 3 4 3 2 5 4 3 1 4 1 2 7 8 7 9 9 9 9 7 7 6 5 5 6 6 6 6 6 7 10 14 15 16 17 19 20 22 23 23 22 22 22 22 22 22 22 22 23 23 24 24 25 24 24 22 20 18 16 15 14 14 13 13 13 13 14 14 14
3 4 3 3 1 7 8 6 2 3 1 3 0 2 1 3 4 3 4 4 2 3 4 4 3 3 2 4 6 8 8 8 8 8 8 8 6 6 6 6 5 5 5 5 5 5 7 10 13 14 15 16 17 19 21 22 22 21 21 21 22 22 22 22 22 22 23 23 24 25 25 24 24 23 22 21 19 17 16 14 13 13 12 12 13 14
2 3 2 4 1 4 3 1 1 1 0 1 2 1 3 2 3 1 4 2 0 3 4 3 3 4 1 3 5 7 8 8 7 7 8 6 6 6 5 5 5 4 4 4 4 4 7 10 12 13 14 15 16 17 19 19 19 18 18 19 20 21 22 22 21 22 23 25 26 26 26 25 25 24 24 23 21 19 18 17 15 14 13 12 12 13
1 2 2 3 2 3 1 3 2 1 2 3 1 2 2 3 2 1 2 1 1 5 4 3 6 6 4 2 3 7 7 7 6 6 6 6 6 6 5 5 4 4 4 4 5 5 7 10 11 11 12 12 14 15 15 16 16 16 16 16 17 18 19 19 19 20 22 25 26 26 26 26 25 24 23 23 23 22 21 21 20 19 17 15 14 13
0 2 4 3 2 2 1 3 2 3 3 3 2 0 2 0 1 1 1 2 4 6 4 4 7 7 4 2 1 6 7 7 6 5 6 5 5 4 4 4 4 4 4 4 4 4 5 7 7 8 9 10 11 12 12 12 13 14 15 15 16 17 17 18 19 20 21 23 24 24 24 24 24 23 23 23 24 24 24 23 22 22 21 20 18 17
1 1 2 1 1 1 2 2 2 3 2 3 1 1 1 3 3 2 1 2 4 6 5 5 7 6 2 2 2 4 8 8 7 5 5 3 3 3 3 3 2 2 2 3 3 3 3 4 4 5 6 7 7 8 8 8 9 10 11 12 13 14 15 17 18 19 19 20 21 22 22 22 23 23 22 23 24 24 24 24 23 23 23 22 22 22
1 3 3 1 2 1 0 2 3 2 1 2 1 2 2 1 1 1 2 3 4 5 5 6 7 4 1 3 4 6 8 7 7 6 5 4 3 3 2 2 2 2 2 3 3 3 4 6 5 4 4 5 5 5 5 5 5 6 8 10 11 12 14 15 16 16 16 16 17 18 20 21 22 22 22 22 23 24 24 25 25 25 25 24 24 24
1 2 2 2 2 1 2 1 3 2 3 3 1 2 3 2 1 3 5 3 3 4 4 6 8 4 1 3 3 6 6 6 7 6 5 5 5 4 4 4 4 4 4 4 4 4 6 8 8 6 5 4 3 4 4 4 4 5 6 8 10 11 12 14 15 15 15 15 15 15 16 17 17 18 19 20 21 22 23 24 25 25 26 26 26 25
1 2 1 4 4 5 7 4 2 2 3 3 2 2 2 0 1 4 6 3 1 3 2 4 6 2 2 2 2 5 5 7 8 8 7 6 7 7 6 6 6 5 5 5 5 6 9 9 8 6 3 2 1 2 4 5 6 7 8 8 9 10 11 13 14 15 15 15 15 14 14 14 14 15 16 17 17 19 20 22 23 23 25 26 26 26
2 2 1 3 4 6 9 5 3 4 2 1 0 1 2 1 1 3 4 1 1 3 3 5 5 2 2 3 1 4 6 7 7 8 8 7 6 6 6 6 5 5 4 5 5 6 7 5 4 3 2 0 1 2 4 5 6 7 7 9 10 11 12 13 14 15 16 15 15 15 14 14 14 15 16 16 15 16 17 19 20 21 23 25 25 26
1 0 1 1 2 4 5 2 3 5 4 2 1 2 1 2 2 2 2 2 2 4 4 4 4 2 2 3 4 4 5 5 6 6 6 6 6 6 6 5 4 4 4 4 4 5 5 4 4 4 2 1 0 1 2 3 4 5 7 9 11 12 12 12 12 14 15 16 16 16 16 15 15 17 18 18 18 18 18 20 20 20 21 23 24 25
1 1 2 2 3 3 4 3 1 1 2 1 2 3 3 4 4 3 2 2 4 2 2 4 6 4 3 5 6 6 6 5 5 6 5 5 5 5 5 4 4 4 4 4 4 4 4 4 4 3 3 2 1 1 2 3 4 6 8 10 12 13 15 15 15 16 16 16 16 16 17 16 17 18 19 20 20 20 21 23 23 22 22 23 22 23
0 1 3 5 6 6 7 6 3 1 2 3 5 6 7 7 5 4 4 5 3 3 4 8 9 8 9 10 7 3 5 6 6 6 5 4 4 4 4 4 4 4 4 5 4 4 4 4 4 3 3 2 1 3 4 6 8 10 11 13 14 14 15 16 16 17 19 19 18 19 18 18 19 20 21 22 22 22 23 25 26 26 26 26 25 24
1 2 5 7 8 8 8 9 9 8 7 7 8 10 10 9 6 7 7 5 3 4 8 11 10 9 10 11 10 6 4 7 7 6 6 5 5 5 4 3 2 3 4 3 2 2 2 3 3 3 4 5 6 7 8 9 10 12 14 15 16 16 17 18 17 18 19 19 20 21 21 21 22 23 25 25 25 26 27 29 30 30 31 30 29 28
2 3 5 5 7 9 9 10 10 9 9 9 10 12 13 12 12 11 9 7 5 7 10 10 12 12 11 11 13 9 4 2 1 3 5 5 5 5 4 2 3 4 4 4 4 4 4 4 5 6 8 9 9 10 11 11 12 13 14 15 16 16 18 19 18 19 20 20 21 22 22 23 24 25 27 28 29 30 31 32 33 34 34 34 33 33
1 3 3 3 5 8 9 9 8 7 8 10 12 14 15 16 15 12 9 9 9 10 11 12 14 15 12 9 7 4 3 4 4 5 5 5 5 5 4 4 4 4 4 4 5 5 5 6 7 8 9 10 11 12 13 14 15 16 16 15 14 15 16 17 17 18 19 20 22 23 23 24 25 27 28 30 31 31 32 33 35 35 36 36 36 36
1 1 1 1 2 6 7 6 4 5 7 9 11 14 15 16 13 11 10 9 9 11 13 13 14 13 8 2 1 1 3 4 3 3 4 5 5 4 2 2 3 3 2 2 3 4 4 4 5 7 8 10 12 13 14 15 16 16 15 14 13 14 14 13 13 15 17 19 21 23 26 28 30 31 32 32 32 32 33 34 35 35 35 35 35 35
1 1 0 1 2 6 7 3 2 4 6 8 13 17 18 15 12 11 10 9 10 12 12 12 12 9 3 1 2 2 3 3 3 3 3 3 5 5 2 2 3 2 1 2 3 5 5 5 6 8 9 11 12 13 14 16 17 16 13 12 11 11 11 13 15 19 21 22 24 25 27 29 31 33 34 35 34 35 35 35 35 35 35 35 35 35
1 1 1 1 3 6 7 2 3 1 5 8 12 15 15 14 13 13 12 12 13 12 10 9 8 5 4 4 4 3 3 3 3 3 3 2 2 2 3 3 3 2 0 2 4 5 5 6 8 10 13 15 17 18 18 18 18 16 15 14 13 15 17 20 23 25 25 26 27 27 28 29 30 31 33 34 34 35 36 36 37 37 36 36 36 35
2 2 2 3 3 6 8 2 4 2 8 8 4 5 9 11 12 13 12 12 11 9 6 5 4 4 6 6 5 4 3 2 1 1 1 2 3 4 4 4 3 1 3 4 4 4 5 7 9 12 13 15 16 16 16 17 15 14 15 16 18 20 23 24 24 25 25 26 27 27 28 28 29 30 31 32 33 33 34 35 35 35 35 35 34 35
4 4 3 3 3 5 5 2 3 8 8 3 1 4 7 8 8 9 11 11 10 10 9 5 5 6 6 5 5 5 2 1 2 3 5 6 6 5 3 2 0 3 3 2 2 3 6 8 10 11 12 12 12 13 14 14 13 13 15 17 19 20 21 21 23 24 24 25 26 26 27 27 27 28 30 31 32 32 32 33 33 33 34 34 35 36
5 4 3 3 3 3 3 5 8 8 4 3 3 2 2 2 4 6 8 9 9 8 6 3 5 7 7 5 5 4 1 3 3 4 6 5 3 3 2 0 2 2 1 1 3 5 7 9 9 10 9 9 10 11 11 12 14 16 18 18 18 19 20 22 23 24 24 25 26 26 26 26 28 31 33 34 34 34 34 35 35 36 36 36 36 37
7 5 3 3 4 4 4 7 8 8 9 9 8 4 1 2 4 3 3 5 6 4 2 2 4 6 7 6 4 1 1 3 4 5 2 4 4 3 3 1 0 2 3 5 6 6 6 7 9 7 6 8 10 10 11 15 18 20 21 20 20 21 23 23 23 24 25 26 26 26 26 28 30 32 34 34 33 34 35 35 36 37 37 36 37 38
4 6 5 4 5 4 4 6 6 7 9 7 4 2 1 3 2 3 1 2 4 4 3 5 5 5 7 5 2 1 3 5 3 4 1 5 4 3 2 2 1 5 8 7 6 5 5 7 7 6 7 9 9 10 15 19 20 21 22 22 23 24 25 24 24 24 25 25 26 26 28 29 29 30 32 32 32 33 35 36 38 38 38 37 38 40
1 2 4 4 5 5 5 6 7 7 6 3 2 2 3 3 3 4 2 3 2 3 1 6 8 6 6 4 1 3 4 2 4 5 2 2 2 1 2 2 2 8 8 6 5 5 6 6 6 7 10 11 10 14 18 20 20 21 22 23 24 24 24 24 24 24 25 26 27 28 28 29 29 30 31 32 34 35 36 38 39 39 39 38 38 40
1 1 2 5 6 7 7 7 6 5 3 3 4 2 2 2 6 6 4 5 2 3 2 7 9 5 6 5 3 4 3 3 5 5 3 1 4 4 0 4 7 7 6 6 5 5 6 7 8 10 12 11 12 17 20 20 21 22 22 22 22 21 22 23 24 25 26 27 28 28 29 29 29 30 31 32 34 36 36 36 37 38 38 38 38 39
1 1 3 6 8 9 9 7 6 4 4 5 6 6 5 3 6 0 7 5 4 5 5 5 7 5 5 4 4 4 5 6 5 6 4 3 5 4 5 8 6 5 5 4 5 6 7 8 10 11 11 11 14 19 20 21 21 21 20 20 20 20 20 22 24 26 27 28 29 30 31 31 31 31 32 33 33 35 36 35 34 36 37 37 38 38
2 1 2 5 6 6 7 6 6 5 3 5 4 3 3 3 1 4 5 3 6 7 6 5 4 3 3 4 5 5 6 6 5 5 5 4 4 0 6 7 4 4 4 4 5 7 9 10 11 11 11 13 17 20 21 20 21 20 18 18 19 20 21 23 25 26 28 29 31 31 32 33 32 32 33 33 32 34 36 35 34 35 36 36 37 38
4 3 2 4 4 4 5 6 6 5 2 5 5 2 1 3 4 3 2 3 6 7 6 6 5 4 5 6 6 6 6 6 5 5 5 5 2 3 5 4 4 5 5 5 6 8 11 12 12 13 14 17 20 21 20 20 20 19 18 19 21 21 22 24 26 28 29 30 32 33 33 34 33 33 32 33 33 33 35 35 34 35 35 34 35 35
3 4 3 4 4 4 4 6 4 3 3 5 6 3 5 5 4 4 5 4 5 6 6 5 6 7 7 7 6 7 6 5 5 5 5 4 1 4 4 5 5 5 5 5 6 9 12 13 14 16 18 19 21 21 19 18 18 19 19 21 22 23 25 27 28 29 30 31 32 34 34 34 34 33 33 33 33 33 34 34 34 33 33 32 32 32
5 6 6 6 5 5 5 5 2 3 3 5 6 5 6 6 6 5 5 5 5 5 6 6 6 6 6 6 6 6 5 5 6 5 4 2 2 3 3 5 5 5 5 5 7 10 12 15 17 20 22 21 21 20 18 16 17 20 22 23 24 26 27 29 30 31 31 32 33 34 35 35 35 34 34 33 32 32 32 32 32 31 31 30 30 29
6 6 5 5 6 5 5 5 4 3 6 6 5 6 7 7 7 7 6 5 6 6 6 5 6 6 6 6 6 5 5 6 6 5 3 2 3 3 3 4 5 5 6 7 8 11 15 18 19 21 22 22 21 19 17 16 18 21 24 25 26 27 29 30 31 32 32 32 33 33 34 35 35 34 33 33 31 31 31 31 31 31 30 29 29 29
5 7 7 6 7 7 5 5 6 6 8 7 6 6 7 8 8 7 7 7 7 7 7 6 6 6 6 6 6 6 6 6 6 5 1 2 3 3 4 5 5 5 6 7 10 13 17 17 18 19 20 22 21 19 18 19 20 22 24 26 27 29 29 30 31 31 32 33 34 34 33 33 34 34 33 32 31 30 30 30 30 30 30 29 29 29
4 7 7 7 9 8 6 7 8 8 8 8 7 6 6 7 8 8 7 6 5 5 6 6 6 6 5 6 7 7 6 5 5 3 1 2 2 4 5 4 4 5 7 9 11 14 15 15 17 18 19 21 22 21 20 21 22 23 25 27 28 29 30 30 30 31 33 33 33 33 33 32 33 33 31 31 30 30 30 30 30 30 31 31 32 31
3 5 5 5 5 5 5 7 8 7 8 10 10 9 8 8 10 10 7 5 6 6 6 5 5 6 6 6 6 6 6 5 2 1 0 1 2 3 4 4 4 6 9 11 12 14 14 15 16 17 19 21 22 21 22 23 24 25 26 27 28 29 29 31 31 31 33 33 32 33 32 31 31 31 31 31 31 30 31 31 31 32 33 34 34 33
5 8 7 5 4 5 6 7 6 5 8 9 9 10 10 10 10 8 6 6 7 7 7 6 5 4 5 5 5 6 6 4 3 2 1 1 3 3 3 4 6 8 9 11 13 15 14 14 16 18 20 21 21 21 23 25 26 28 27 28 28 28 29 31 32 31 32 32 31 32 31 30 30 30 30 31 31 31 31 31 31 31 33 34 35 35
8 10 9 6 6 8 8 8 7 7 8 8 8 8 8 7 7 7 7 8 8 8 8 8 7 5 5 4 5 6 6 4 3 3 2 2 2 2 3 5 7 9 11 13 14 14 14 14 16 18 20 21 22 23 25 27 28 28 28 28 28 29 30 31 31 31 32 31 30 31 31 30 30 30 30 30 30 30 30 30 30 31 33 34 35 36
Wind_Direction
152 177 195 198 219 234 240 235 239 248 256 269 276 275 277 279 279 287 288 283 286 285 279 288 296 299 297 289 278 270 268 268 271 274 270 278 312 25 52 64 67 66 58 52 49 42 36 33 32 35 38 40 42 43 44 45 44 43 45 49 56 69 122 156 165 172 182 189 195 201 210 215 215 219 220 219 220 221 224 226 229 232 234 231 228 225
142 200 220 214 223 237 246 256 265 270 277 283 283 280 278 277 279 281 281 281 285 284 285 297 293 293 292 281 274 273 275 271 267 262 264 299 47 53 58 65 64 59 50 46 42 37 33 29 30 33 35 37 38 39 41 42 41 41 44 44 49 58 65 100 133 148 169 181 186 192 205 216 222 228 230 231 231 230 230 230 232 234 235 234 232 230
189 227 234 227 228 241 250 259 268 270 274 279 279 283 280 277 282 275 268 274 292 92 300 305 295 291 285 275 273 275 273 262 257 265 30 64 66 51 52 60 58 52 47 43 36 31 30 27 28 32 33 35 37 38 39 40 40 40 40 40 44 49 47 51 78 94 114 148 161 164 163 177 194 205 217 224 229 233 233 233 235 237 239 238 237 235
201 227 233 223 225 239 249 253 259 263 257 250 257 269 270 272 275 268 277 312 354 343 300 300 296 289 280 274 275 270 258 269 321 71 70 72 73 63 61 59 54 53 47 42 36 27 27 27 27 29 31 33 36 37 37 37 38 37 39 41 44 44 46 48 52 55 59 82 127 155 150 145 161 169 190 206 218 229 232 232 234 238 242 243 242 240
234 255 249 204 219 235 250 258 259 262 262 249 242 247 260 267 266 272 324 345 345 324 303 308 299 271 268 273 281 267 249 18 55 75 70 63 69 68 64 59 55 55 48 44 39 27 27 29 30 30 32 34 36 36 35 36 37 37 39 43 43 44 47 51 52 52 52 52 58 57 41 58 156 236 246 246 245 241 239 238 237 241 243 244 245 245
251 264 244 205 231 243 251 259 258 257 276 269 251 258 281 295 301 319 350 1 354 314 303 23 353 268 284 313 312 288 302 53 61 70 64 56 57 56 56 54 53 56 53 47 39 33 34 35 37 36 34 35 36 37 36 38 39 40 41 42 42 42 43 47 51 61 66 59 48 38 28 26 17 351 323 306 286 256 252 255 249 249 250 249 248 246
257 250 91 110 258 264 261 265 264 257 269 268 266 332 347 6 12 5 6 10 337 267 273 8 345 263 278 293 274 271 309 79 70 68 68 64 57 55 56 51 47 50 51 51 40 32 33 34 39 41 37 37 38 39 41 42 42 41 42 42 41 40 40 41 45 56 67 66 57 45 34 28 20 10 1 354 351 332 299 289 265 256 258 258 255 250
221 184 90 65 240 248 250 259 259 231 234 252 284 4 13 27 10 346 350 279 246 273 281 251 228 256 270 243 249 247 124 94 83 75 74 72 69 68 64 54 50 43 37 46 44 34 28 26 33 40 42 42 41 43 45 46 45 43 43 44 43 42 40 39 41 47 57 64 60 51 43 36 28 19 10 2 0 360 346 319 295 282 274 269 267 261
212 182 170 159 179 213 224 243 269 227 216 227 234 13 16 14 301 278 257 253 266 301 284 228 197 242 274 247 248 225 123 103 98 93 80 74 74 73 70 61 53 44 32 33 39 39 33 26 27 34 42 45 44 46 48 49 49 48 46 46 46 44 42 42 42 43 49 58 62 57 49 40 31 22 14 8 3 2 359 336 306 294 285 280 280 276
293 140 176 165 185 218 213 218 317 314 203 207 236 312 313 256 235 236 240 254 292 281 256 231 192 203 287 269 262 123 117 120 111 102 88 80 76 71 72 64 54 47 34 29 28 28 31 30 28 31 38 42 43 44 48 51 52 51 48 47 47 44 44 46 45 44 45 50 56 57 53 45 36 27 19 16 10 3 359 349 333 312 296 286 284 285
199 73 18 200 218 221 155 131 35 37 159 191 289 329 313 269 228 209 216 201 310 267 254 247 204 185 277 292 335 73 128 144 133 129 118 102 91 81 72 61 57 54 43 37 27 21 26 31 33 33 35 37 38 40 45 48 49 50 50 49 49 46 45 47 48 47 45 45 48 50 49 45 38 32 26 21 16 9 0 354 348 336 321 303 290 287
203 146 234 213 236 215 128 115 22 51 76 91 32 344 335 306 231 125 108 114 237 248 273 305 197 176 215 283 57 70 116 145 146 152 140 123 111 95 81 67 57 54 55 48 33 26 24 26 29 30 31 31 32 35 39 42 44 47 48 48 49 48 46 47 48 49 48 47 48 46 46 43 37 33 30 25 19 15 9 1 354 348 340 329 313 298
208 208 207 184 286 204 150 136 349 50 91 122 159 144 9 316 322 170 237 179 214 240 246 23 52 153 225 275 286 69 77 100 119 131 133 127 121 106 91 81 64 49 53 50 42 35 26 24 23 23 25 26 27 29 33 38 40 41 43 46 48 46 46 48 49 50 50 49 49 48 47 43 38 34 30 24 18 14 11 4 357 353 347 342 336 326
274 250 187 150 332 196 167 162 188 231 174 165 174 161 167 247 289 264 257 243 243 260 246 51 40 6 227 288 298 89 79 60 78 93 103 108 108 101 94 86 73 60 47 41 43 38 29 22 17 19 21 21 22 25 31 36 36 37 38 40 43 44 44 46 47 49 50 49 49 50 51 48 43 39 32 23 14 8 7 3 358 353 347 342 338 333
252 301 183 169 212 169 178 200 190 136 163 192 195 156 164 200 242 255 262 263 268 283 271 286 348 228 188 262 25 86 84 69 74 81 84 87 89 91 89 74 61 54 45 38 36 33 29 23 20 20 20 19 21 24 29 32 32 33 32 32 36 38 40 42 43 45 46 46 47 49 50 50 47 43 38 30 21 15 9 3 360 356 350 344 336 330
220 261 182 148 156 161 180 228 201 99 147 228 75 89 179 213 206 252 269 256 279 306 279 266 258 243 174 111 94 89 84 81 81 83 86 85 83 81 75 66 56 47 42 38 34 30 25 25 26 25 22 20 21 24 28 28 28 28 28 28 31 32 34 37 38 39 42 43 44 45 46 47 45 43 39 35 30 26 19 11 5 358 351 345 337 332
225 252 116 75 7 182 183 277 229 196 186 57 60 155 242 237 155 220 281 269 138 272 259 243 263 283 308 107 107 99 91 88 84 81 85 83 79 76 66 63 60 53 45 34 33 31 20 20 24 26 26 25 25 27 29 28 28 29 28 28 28 29 32 34 35 36 38 41 42 42 43 43 42 40 36 34 32 30 29 26 20 11 2 354 342 332
239 274 225 177 231 245 301 3 336 310 94 117 197 218 267 334 62 143 261 292 239 257 253 245 270 279 269 254 127 121 110 98 89 81 82 76 69 68 63 58 49 40 33 25 30 31 25 22 20 24 29 30 32 33 34 34 34 36 36 35 33 32 31 31 34 36 37 39 41 40 41 40 40 38 34 32 31 31 32 30 27 23 17 11 359 347
119 296 269 218 209 234 13 18 333 332 55 126 189 177 96 321 298 197 194 215 236 256 258 246 264 267 252 275 160 154 138 116 109 96 82 74 70 70 66 56 37 22 16 13 17 18 21 18 13 18 24 29 34 34 36 38 36 37 38 39 39 38 36 36 37 39 39 39 39 39 40 40 38 36 32 29 27 27 28 26 24 22 21 19 14 6
100 213 280 3 50 71 56 75 198 271 2 87 112 322 139 178 213 209 207 223 231 255 264 253 262 264 254 329 333 140 129 125 126 115 102 102 108 105 94 78 34 5 357 347 345 338 335 336 345 7 16 22 26 21 22 24 25 28 28 30 35 35 36 38 37 38 39 37 37 37 38 38 36 33 29 26 23 22 22 21 19 18 17 17 16 12
5 236 248 352 13 32 108 173 180 236 306 87 48 271 233 227 256 297 271 242 228 253 265 258 258 253 255 345 21 83 101 113 125 128 137 150 143 139 156 176 216 239 249 268 272 268 272 279 294 323 339 346 354 357 3 5 9 15 13 18 25 24 26 30 30 31 31 30 30 31 31 32 30 27 24 22 19 17 16 14 13 11 9 10 11 11
334 263 259 295 302 246 225 179 119 142 147 113 88 243 258 291 345 295 267 236 217 239 249 260 260 246 242 315 46 85 94 104 123 140 152 167 176 186 202 207 212 215 219 229 229 236 250 256 263 273 288 305 327 357 12 16 15 13 10 12 17 20 21 21 22 24 24 22 20 19 21 23 22 20 17 15 13 11 9 7 6 4 2 2 2 3
94 93 278 272 268 263 274 293 70 139 162 149 184 211 239 260 175 255 262 259 272 277 287 271 261 229 215 278 72 115 137 142 157 167 167 182 191 193 202 204 204 210 212 213 216 226 236 243 247 248 257 285 341 19 17 22 20 13 11 9 10 14 16 16 18 20 19 18 16 13 11 11 11 10 8 6 5 3 2 360 358 357 355 354 353 353
78 91 238 263 278 289 286 297 36 36 63 117 243 97 107 157 193 238 243 227 246 268 276 265 259 257 241 257 195 150 158 162 175 175 171 181 183 185 196 195 192 198 202 206 209 213 218 220 213 197 181 177 21 11 5 9 7 2 2 3 6 9 9 11 13 13 14 13 12 11 8 4 2 360 359 357 354 352 352 351 348 347 346 346 345 344
237 147 128 243 296 305 289 284 30 19 37 61 332 324 306 259 253 242 224 204 213 229 240 245 257 271 208 209 214 193 175 173 180 177 175 174 172 180 186 181 183 185 192 200 190 184 189 179 163 155 153 163 157 337 337 344 344 347 354 357 1 2 1 3 4 6 9 9 7 6 3 359 353 350 351 349 345 341 341 342 340 336 336 337 337 336
212 219 143 179 244 251 261 260 170 89 59 56 254 267 277 259 251 266 275 255 250 262 297 268 265 271 227 214 215 198 188 195 192 187 186 175 165 168 170 177 182 178 188 194 177 176 193 192 177 165 174 193 207 269 293 316 331 343 349 351 354 352 352 353 352 352 355 357 358 356 353 351 346 344 344 342 340 337 333 334 334 330 328 329 328 327
129 253 199 207 232 242 256 270 277 299 298 280 276 276 271 261 253 259 256 253 273 321 290 258 259 275 275 269 262 206 188 214 215 198 185 164 150 157 168 175 171 172 190 193 188 195 200 199 198 195 204 227 279 310 325 333 337 340 341 341 344 344 343 344 342 342 345 345 346 345 344 343 339 337 337 336 334 331 328 327 326 324 323 322 321 319
135 245 224 216 234 244 253 269 283 291 280 270 275 273 266 260 245 234 240 255 306 308 268 265 275 281 278 283 293 292 257 254 248 204 172 157 156 160 157 153 170 215 219 213 227 255 271 271 272 284 300 310 315 317 322 320 321 326 326 328 333 334 335 335 333 333 336 337 337 338 337 336 334 333 332 331 330 326 324 324 322 321 319 317 315 314
136 242 244 236 249 254 257 262 266 273 277 276 273 271 270 265 252 244 243 238 239 252 260 273 281 277 277 283 290 297 303 288 254 148 134 130 138 143 143 173 231 248 249 256 261 262 269 268 271 281 289 293 294 297 300 298 299 303 305 310 318 323 327 327 325 325 329 330 331 332 331 330 328 327 326 325 323 321 320 319 318 317 315 313 311 310
164 240 244 246 266 265 263 264 263 267 274 272 269 268 267 264 260 261 259 241 238 252 262 271 274 274 280 286 288 311 29 69 82 97 111 128 147 158 172 204 234 250 251 253 252 246 240 239 244 256 266 272 275 276 278 278 280 283 285 290 296 305 313 313 311 315 319 322 323 323 323 321 320 319 319 317 315 313 313 313 313 312 310 308 307 307
252 218 159 99 294 274 265 266 264 258 260 266 270 267 263 265 270 271 265 258 256 261 263 267 271 273 284 338 72 98 79 83 92 111 137 153 151 140 146 221 251 263 272 283 298 307 303 291 286 285 284 283 282 281 283 285 289 291 290 291 294 302 311 313 315 319 319 318 318 316 315 314 315 315 314 313 312 311 310 309 308 307 305 304 303 303
266 253 326 56 267 267 273 290 287 273 281 278 268 261 258 261 265 262 260 261 260 263 266 267 267 263 256 88 130 149 103 88 95 88 85 98 101 101 103 279 273 268 296 344 1 7 5 358 348 347 352 350 345 342 339 337 339 340 338 335 332 331 331 330 330 328 323 318 314 311 310 310 311 311 311 310 310 310 309 308 306 305 303 302 302 301
179 184 297 262 247 267 278 307 77 23 287 268 256 254 253 255 257 259 261 258 254 257 261 260 258 237 183 169 172 154 89 52 50 51 45 53 91 138 200 247 267 269 343 48 47 36 17 4 7 17 22 17 8 1 356 353 354 354 353 348 342 336 332 330 328 325 321 316 313 310 310 309 308 307 306 306 307 307 307 305 302 301 301 300 300 299
197 186 225 247 248 266 272 288 94 202 256 259 235 218 233 242 247 251 256 254 250 251 249 232 201 177 168 161 157 140 101 66 44 321 302 259 235 227 227 243 261 350 54 54 49 30 15 22 28 26 17 6 356 351 348 349 350 346 341 336 330 327 328 328 325 322 319 315 313 312 312 311 309 307 305 305 306 306 305 302 300 299 299 299 299 298
208 204 215 233 238 257 272 280 232 234 242 255 135 193 228 240 239 248 260 261 257 259 261 241 177 163 154 135 120 103 75 325 282 263 258 248 229 216 230 261 55 74 57 38 25 19 36 48 39 20 6 356 350 347 346 350 349 340 336 335 331 327 326 325 321 319 317 315 314 314 314 314 312 311 309 309 309 308 306 304 302 301 300 300 299 297
202 200 203 219 233 250 246 230 240 252 266 281 273 259 269 255 237 252 269 265 253 251 257 234 168 153 135 113 99 82 7 303 302 272 255 247 218 187 178 170 98 98 107 86 68 63 64 55 31 10 359 355 354 353 356 356 347 339 336 335 333 328 325 324 321 318 317 316 315 315 315 315 314 312 310 309 308 306 304 303 302 301 300 300 298 295
203 200 199 223 232 231 229 233 253 287 290 272 265 269 255 188 196 203 247 257 242 226 204 164 153 144 125 105 88 44 351 7 347 309 316 64 71 97 101 88 160 128 107 82 67 65 57 29 11 7 4 4 7 6 0 351 341 338 336 334 332 329 325 324 320 318 317 315 315 315 314 315 315 312 310 308 306 304 303 301 300 299 299 298 296 293
208 209 199 218 239 228 238 253 257 273 273 256 248 269 61 80 120 138 131 263 256 255 222 172 147 128 113 105 95 33 41 32 339 288 28 67 62 81 83 309 324 95 91 72 47 32 21 11 14 21 10 9 13 3 351 345 340 338 336 333 331 328 324 322 320 319 318 316 314 314 313 313 313 310 308 306 303 302 301 299 298 297 297 296 294 291
218 239 198 216 247 232 233 248 243 253 263 217 153 100 79 67 57 60 15 293 277 315 337 132 128 120 121 131 151 106 78 14 282 258 247 47 27 24 235 256 80 84 77 53 28 12 12 19 23 15 7 10 8 354 347 343 339 337 333 329 328 325 321 320 319 318 317 314 313 312 311 310 308 306 305 303 300 300 299 298 298 297 296 294 292 290
150 223 187 210 237 233 233 245 246 252 252 181 157 158 167 76 61 52 322 277 225 290 340 121 131 143 146 159 168 142 158 224 240 251 260 346 340 322 212 120 92 75 52 30 17 2 7 16 13 9 10 8 357 348 343 339 335 332 328 325 323 321 318 317 316 315 313 311 311 310 309 308 307 306 304 302 300 300 299 298 298 297 296 294 293 291
152 183 204 214 228 231 232 243 253 250 228 200 191 186 170 80 59 334 263 253 182 234 255 152 153 168 157 172 192 186 210 221 223 257 285 330 324 328 98 106 92 63 46 29 11 359 2 8 7 7 7 355 343 341 339 334 330 327 325 322 319 316 315 314 313 313 312 311 310 310 309 309 307 305 304 302 301 299 298 297 297 296 296 295 294 293
143 135 238 224 224 229 230 241 258 264 224 181 185 194 145 92 80 232 237 189 167 203 223 196 191 199 177 202 218 214 231 241 244 270 295 304 293 187 108 99 73 57 49 22 6 360 357 358 358 355 349 341 337 337 336 331 327 325 324 320 316 315 315 314 313 314 313 312 311 310 310 309 308 306 305 303 303 300 298 298 297 296 295 294 294 293
165 155 229 221 203 208 228 234 243 262 230 134 111 28 283 193 204 199 178 192 194 192 198 206 217 215 202 214 228 226 235 252 259 269 280 279 251 126 102 80 63 58 43 28 16 359 351 352 350 343 338 334 333 334 334 329 324 324 321 316 316 317 317 316 316 315 313 312 311 311 310 310 309 308 307 305 303 300 298 298 297 296 295 293 293 292
194 174 212 230 183 164 212 235 213 203 221 164 138 177 227 215 206 173 159 195 210 192 190 207 222 219 205 205 223 231 239 256 260 262 266 261 142 95 71 51 50 48 45 40 14 352 348 347 340 333 330 330 331 332 331 328 323 319 316 316 319 321 319 318 318 316 314 313 312 311 311 311 310 309 307 305 304 300 298 298 297 295 294 292 291 290
216 198 212 237 223 184 207 236 195 144 209 199 173 194 226 240 247 223 191 195 209 205 209 215 218 215 200 194 214 231 244 256 258 256 248 216 103 74 50 42 47 52 48 27 358 345 344 341 334 329 326 326 328 329 327 327 321 314 314 319 322 321 319 319 318 316 314 313 312 312 312 311 310 309 307 306 305 301 298 298 296 294 293 292 289 287
226 227 231 241 253 257 250 252 261 272 261 240 210 209 221 234 250 247 230 223 225 224 222 208 194 192 186 185 203 224 235 243 254 260 243 132 88 63 46 40 41 38 23 4 351 340 336 333 329 325 322 322 324 326 325 323 319 313 315 321 322 320 319 318 317 314 313 312 312 312 312 311 309 309 309 307 305 301 297 296 295 293 292 290 287 285
237 242 245 244 251 261 260 249 243 245 249 250 245 238 235 237 242 240 235 235 233 223 207 183 170 170 171 176 194 217 229 233 244 257 266 87 82 69 58 48 37 25 8 353 342 333 330 329 325 322 318 316 319 322 321 319 318 317 318 319 320 319 318 316 315 313 312 312 311 311 311 310 309 308 307 306 304 301 298 295 293 291 290 289 287 287
230 231 236 238 240 244 247 247 242 240 248 252 247 243 244 244 244 243 236 223 200 181 169 157 152 157 171 187 198 210 223 225 225 236 268 59 68 70 63 48 29 7 345 334 328 325 325 323 318 315 312 310 315 319 319 318 320 320 319 319 320 320 318 315 314 312 310 310 310 310 310 308 305 304 303 302 301 299 297 295 293 290 287 286 286 285
247 248 243 235 238 249 256 252 251 258 266 260 250 246 246 245 248 252 239 192 159 151 151 154 159 165 177 190 188 191 208 211 171 130 147 44 55 60 54 33 5 339 326 322 319 318 318 315 312 310 308 308 313 318 318 319 319 319 319 320 320 320 317 315 314 311 309 309 309 308 307 305 303 302 301 301 300 298 295 293 291 288 286 285 284 282
245 252 252 251 253 253 249 239 231 240 256 256 248 242 240 240 244 244 216 179 176 177 168 166 168 158 154 162 161 165 187 190 136 105 112 94 66 48 25 355 333 321 316 314 312 312 311 310 310 309 307 309 315 319 319 318 318 319 320 321 321 321 318 315 313 311 309 309 308 306 305 304 302 302 302 301 300 298 296 294 292 290 289 289 289 288
231 240 241 242 247 249 246 234 218 222 242 249 246 242 234 224 221 215 199 192 196 190 173 170 175 171 164 163 159 160 166 160 134 123 112 86 50 2 341 328 319 313 310 308 309 309 308 308 310 309 308 312 317 318 318 317 317 319 321 322 322 322 318 315 313 309 308 307 305 305 305 304 303 302 302 301 299 298 296 296 296 294 293 292 293 294